STARLINK-1146, 45094

Orbit data source: Space-Track

STARLINK-1146, 45094 is a payload satellite owned by SpaceX/Seattle (US) in LEO that was launched on Wed, 29 Jan 2020 UTC via an FALCON 9 launch vehicle from the Air Force Eastern Test Range (AFETR). Payload-class satellites include a variety of spacecraft equipped with specific instruments for various scientific and technological missions. These include communications satellites like Starlink; space stations such as the ISS; scientific satellites like the Hubble; Earth observation satellites from companies like Planet Labs, Umbra, and HawkEye 360; GPS; miniature CubeSats for education and research; and military/defense satellites.

Not visible in the next 10 days
Identifier
45094, 2020-006BC
Orbit
LEO
Country
Flag of USUS
Related business
Manufacturer
SpaceX/Seattle
Mission
Partially operational Commercial Communications
Bus & Motor
STARLINK, Unknown motor
Mass
260 kg wet, ~248 kg dry
Launch date (UTC)
2020-01-29 (6 years ago)
Launch vehicle
FALCON 9
Launch site
Air Force Eastern Test Range (AFETR)
Object type
Payload
Rocket body
Debris
Shape & HBR
Box + 1 Pan, 4.4 m
Radar Cross Section
13.562 m², Large (>1 m²)

Expand to show TLE details & history
Last TLE update: 9 hours ago

TLE from 9 hours ago
0 STARLINK-1146
1 45094U 20006BC  25258.58341435  .00380747  66691-4  11019-2 0  9990
2 45094  53.0459 264.1795 0005329 355.8830  14.1864 15.92464067  5806
Epoch: 2025-09-15T14:00Z
TLE epoch observation values (Epoch: 2025-09-15T14:00:06.999Z)
Latitude
8.01281°
Longitude
65.40883°
Altitude
292.167 km
Speed
7.736 km/s
True Right ascension
18h 00m 53s
True Declination
7° 57' 44"
Sunlit
Object was in daylight at epoch
Visualization orbit readout
Latitude
Unknown
Longitude
Unknown
Altitude
Unknown
Speed
Unknown
Apparent Right ascension
Unknown
Apparent Declination
Unknown
Sunlit
N/A
Visualization observer readout
Local Sidereal Time
15:18:13
Azimuth
Unknown
Elevation
Unknown
Doppler factor
Unknown
Orbital elements
Apogee altitude
299.228 km
Perigee altitude
292.115 km
Semi-major axis
6,673.809 km
Eccentricity
0.00053
Inclination
53.0459°
RAAN
264.1795°
Arg. of periapsis
355.883°
True anomaly
14.20138°
Mean anomaly
14.1864°
Eccentric anomaly
14.19389°
Mean motion
3.98091 °/min
Orbital period
90.43 mins
BSTAR
0.0011019
Loading maneuver chart data...
Computing Atmospheric mass density...

Documentation

Showing up to 5 results
|